Weather in Zhipkhegen

Russia / Zabaykalsky Krai     51°27′21″N   110°10′11″E
temp.,
°C
wind,
m/s
gust,
m/s
humid.,
%
clouds,
%
prec.,
mm/h
press.,
hPa
HPBL,
m
13 may, thu
thu1300:00+2wnw118872 0.1 101112
03:00+2w118597 0.1 101115
06:00−1wsw119377 0.0 101210
09:00+5nw355070 0.0 10111463
12:00+8nw4633100 0.0 10092532
15:00+9wnw5731100 0.0 10072534
18:00+7nw584054 0.1 10091955
21:00+4nw4103373 0.1 1011640
14 may, fri
fri1400:00−2w22585 0.0 101527
03:00−3wnw29698 0.0 1015242
06:00−3wnw227762 0.0 101644
09:00+4wnw245110 0.0 1015872
12:00+8nw453798 0.0 10132200
15:00+10nw4635100 0.0 10122516
18:00+10nw463199 0.0 10112322
21:00+5nw114815 0.0 101410
15 may, sat
sat1500:00+1w11620 0.0 101710
03:00−1sw11750 0.0 101811
06:00−2ssw11770 0.0 101911
09:00+7sw25390 0.0 1016384
12:00+14wsw48214 0.0 10121937
15:00+17wsw581998 0.0 10093476
18:00+14nw683099 0.0 10092047
21:00+7wnw610605 0.0 10141055
16 may, sun
sun1600:00+1wsw26700 0.0 1018125
03:00+2w3126919 0.0 1017561
06:00+2w5146652 0.0 1016914
09:00+8w6115531 0.0 10141147
12:00+14w6114299 0.0 10101968
15:00+16wnw71235100 0.0 10092510
18:00+14wnw61347100 0.0 10101663
21:00+9wnw510715 0.0 1011823
17 may, mon
mon1700:00+6wsw239346 0.0 1011116
03:00+5sw229749 0.0 101058
06:00+4w129646 0.0 100925
09:00+12w4864100 0.0 1006921
12:00+11nw496990 0.0 1006814
15:00+14wnw61154100 0.1 10051597
18:00+12nw6954100 0.0 10071567
21:00+8nw49465 0.0 1010805